Powrót do katalogu

STARLINK-2483

AktywnyŁącznośćVLEO
NORAD 48140·PAYLOAD·🇺🇸 United States

Wystrzelony Apr 7, 2021 z Cape Canaveral Space Force Station

Loading…

Następne Przeloty (najbliższe 24 godziny)

TLE

ŚwieżeSource: CelesTrak SupGP

Epoka: Sep 14, 2026, 21:23 UTC

1 48140C 21027BA  26257.89145833 -.00015928  00000+0 -51213-3 0  2570
2 48140  53.1592   5.1753 0001016  88.8204  95.9714 15.31714473    15

Śledź STARLINK-2483 w czasie rzeczywistym z AllMySat

Download on the App Store